Вернуться в каталог

FENGYUN 1C DEB

LostSSO
NORAD 31529·DEBRIS·🇨🇳 China

Запущен May 10, 1999 с Taiyuan Satellite Launch Center

Loading…

Ближайшие Пролёты (ближайшие 24 часа)

TLE

УстаревшееSource: Space-Track

Эпоха: Sep 22, 2022, 09:56 UTC

1 31529U 99025BXU 22265.41400902  .00002087  00000-0  95389-3 0  9996
2 31529  98.8288 330.9560 0051244 156.9001 263.7646 14.21886026799590

Отслеживайте FENGYUN 1C DEB в реальном времени с AllMySat

Download on the App Store